Location: Ferques
(50.8300°N, 1.7599°E)
Time: 05:29:13
(UTC+00:00)

Meteor 1-27 Rocket - Pass Details

Date: 19 May 2025
Orbit: 829 x 908 km, 81.3° (Epoch: 13 June)

Event Time Altitude Azimuth Distance (km) Brightness Sun altitude
Exits shadow 22:30:51 28° 166° (SSE) 1,530 4.4 -17.1°
Maximum altitude 22:33:43 60° 97° (E) 958 3.8 -17.3°
Drops below altitude 10° 22:39:10 10° 18° (NNE) 2,456 6.9 -17.5°
Sets 22:41:36 0° 15° (NNE) 3,390 7.8 -17.6°
